FW6537 Weather Reports


time (UTC)temp
C
wind
direction
speed
KPH
gust
KPH
rain 1hr
cm
rain 24hr
cm
rain mn
cm
humidity
%
barometer
mb
20260904110128 19 73 0.0 3.2 0.00 0.00 0.00 91 1013.0
20260904104625 19 89 0.0 3.2 0.00 0.00 0.00 91 1012.8
20260904103140 19 84 0.0 1.6 0.00 0.00 0.00 91 1012.9
20260904101632 19 98 0.0 0.0 0.00 0.00 0.00 91 1012.6
20260904100126 20 98 0.0 1.6 0.00 0.00 0.00 90 1012.3
20260904094640 20 95 0.0 4.8 0.00 0.00 0.00 90 1012.2
20260904093138 20 95 0.0 3.2 0.00 0.00 0.00 89 1012.1
20260904091655 20 89 1.6 11.3 0.00 0.00 0.00 89 1012.2
20260904090134 20 101 0.0 3.2 0.00 0.00 0.00 89 1012.1
20260904084630 20 117 0.0 1.6 0.00 0.00 0.00 90 1012.1
20260904083122 20 96 0.0 4.8 0.00 0.00 0.00 89 1012.0
20260904081646 20 99 0.0 6.4 0.00 0.00 0.00 90 1011.8
20260904080131 20 139 0.0 3.2 0.00 0.00 0.00 92 1011.7
20260904074627 20 95 0.0 1.6 0.00 0.00 0.00 94 1011.6
20260904073125 20 78 0.0 1.6 0.00 0.00 0.00 95 1011.5
20260904071625 20 78 0.0 1.6 0.00 0.00 0.00 95 1011.3
20260904070124 20 73 0.0 0.0 0.00 0.00 0.00 95 1011.3
20260904064639 20 73 0.0 0.0 0.00 0.00 0.00 94 1011.2
20260904063134 20 73 0.0 0.0 0.00 0.00 0.00 94 1011.3
20260904061625 20 72 0.0 0.0 0.00 0.00 0.00 94 1011.3
20260904060136 20 73 0.0 0.0 0.00 0.00 0.00 94 1011.7
20260904054633 20 73 0.0 1.6 0.00 0.00 0.00 93 1011.8
20260904053147 20 72 0.0 1.6 0.00 0.00 0.00 94 1012.0
20260904051622 20 72 0.0 1.6 0.00 0.00 0.00 94 1012.0
20260904050138 20 94 0.0 0.0 0.00 0.00 0.00 94 1012.0
20260904044636 20 94 0.0 1.6 0.00 0.00 0.00 94 1012.2
20260904043135 21 100 0.0 1.6 0.00 0.00 0.00 94 1012.0
20260904041626 21 120 0.0 0.0 0.00 0.00 0.00 94 1011.8
20260904040142 21 120 0.0 0.0 0.00 0.00 0.00 94 1011.8
20260904034634 21 134 0.0 0.0 0.00 0.00 0.00 93 1011.8
20260904033129 21 134 0.0 0.0 0.00 0.00 0.00 93 1011.9
20260904031648 21 134 0.0 0.0 0.00 0.00 0.00 92 1012.0
20260904030125 21 134 0.0 0.0 0.00 0.00 0.00 92 1012.1
20260904024644 21 134 0.0 0.0 0.00 0.08 0.00 91 1012.1
20260904021636 22 134 0.0 0.0 0.00 0.08 0.00 90 1012.1
20260904020139 22 134 0.0 0.0 0.00 0.08 0.00 88 1012.3
20260904014645 22 134 0.0 0.0 0.00 0.58 0.00 87 1012.3
20260904013138 22 134 0.0 0.0 0.00 0.58 0.00 86 1012.1